, TX

(GMT )
Port Isabel

Weather History for KPIL - January, 2013

Change the Weather History Date:

Sunday, January 20, 2013

  Actual Average Record
Temperature  
Mean Temperature 64 °F -  
Max Temperature 73 °F - - ()
Min Temperature 54 °F - - ()
Degree Days  
Heating Degree Days 2    
Growing Degree Days 14 (Base 50)    
Moisture  
Dew Point 54 °F    
Average Humidity 74    
Maximum Humidity 90    
Minimum Humidity 49    
Precipitation  
Precipitation 0.00 in - - ()
Sea Level Pressure  
Sea Level Pressure 30.17 in    
Wind  
Wind Speed 6 mph (East)    
Max Wind Speed 13 mph    
Max Gust Speed -    
Visibility 10 miles    
Events      
T = Trace of Precipitation, MM = Missing Value Source: NWS Daily Summary

Daily Weather History Graph

Daily Weather History Graph

Search for Another Location

Airport or City:

Trip Planner

Search our weather history database for the weather conditions in past years. The results will help you decide how hot, cold, wet, or windy it might be!

Date:

Astronomy

Jan. 20, 2013 Rise Set
Actual Time 7:17 AM CST 6:03 PM CST
Civil Twilight 6:53 AM CST 6:28 PM CST
Nautical Twilight 6:24 AM CST 6:56 PM CST
Astronomical Twilight 5:57 AM CST 7:24 PM CST
Moon 1:04 PM CST (1/20) 1:54 AM CST (1/20)
Length of Visible Light 11h 35m
Length of Day
10h 45m
Waxing Gibbous, 66% of the Moon is Illuminated
Jan 20
Waxing Gibbous
Jan 26
Full
Feb 3
Last Quarter
Feb 10
New
Feb 17
First Quarter

Hourly Weather History & Observations

Time (CST) Temp. Dew Point Humidity Pressure Visibility Wind Dir Wind Speed Gust Speed Precip Events Conditions
12:53 AM 57.0 °F 53.1 °F 87% 30.21 in 10.0 mi SE 4.6 mph - N/A   Clear
1:53 AM 57.0 °F 52.0 °F 83% 30.19 in 10.0 mi SE 5.8 mph - N/A   Clear
2:53 AM 55.9 °F 52.0 °F 87% 30.18 in 10.0 mi SE 3.5 mph - N/A   Clear
3:53 AM 55.0 °F 51.1 °F 86% 30.17 in 10.0 mi SE 3.5 mph - N/A   Clear
4:53 AM 55.0 °F 51.1 °F 86% 30.17 in 9.0 mi ESE 3.5 mph - N/A   Clear
5:53 AM 55.9 °F 52.0 °F 87% 30.19 in 10.0 mi East 3.5 mph - N/A   Clear
6:53 AM 54.0 °F 51.1 °F 90% 30.19 in 9.0 mi ENE 4.6 mph - N/A   Scattered Clouds
7:53 AM 57.0 °F 53.1 °F 87% 30.21 in 9.0 mi ENE 4.6 mph - N/A   Clear
8:53 AM 62.1 °F 57.9 °F 86% 30.23 in 10.0 mi ENE 3.5 mph - N/A   Clear
9:53 AM 64.9 °F 57.0 °F 75% 30.24 in 10.0 mi ENE 5.8 mph - N/A   Clear
10:53 AM 69.1 °F 54.0 °F 58% 30.24 in 10.0 mi East 8.1 mph - N/A   Partly Cloudy
11:53 AM 71.1 °F 54.0 °F 55% 30.22 in 10.0 mi ENE 9.2 mph - N/A   Mostly Cloudy
12:53 PM 72.0 °F 54.0 °F 53% 30.17 in 10.0 mi East 11.5 mph - N/A   Clear
1:53 PM 73.0 °F 53.1 °F 49% 30.13 in 10.0 mi East 11.5 mph - N/A   Clear
2:53 PM 72.0 °F 54.0 °F 53% 30.12 in 10.0 mi East 12.7 mph - N/A   Clear
3:53 PM 71.1 °F 55.0 °F 57% 30.11 in 1.8 mi East 11.5 mph - N/A   Haze
4:06 PM 71.6 °F 55.4 °F 57% 30.11 in 10.0 mi East 12.7 mph - N/A   Clear
4:53 PM 70.0 °F 55.0 °F 59% 30.11 in 10.0 mi East 10.4 mph - N/A   Clear
5:53 PM 66.0 °F 55.9 °F 70% 30.11 in 10.0 mi East 6.9 mph - N/A   Clear
6:53 PM 63.0 °F 55.9 °F 78% 30.12 in 10.0 mi East 5.8 mph - N/A   Clear
7:53 PM 62.1 °F 55.9 °F 80% 30.13 in 10.0 mi East 5.8 mph - N/A   Clear
8:53 PM 61.0 °F 55.9 °F 83% 30.14 in 10.0 mi East 5.8 mph - N/A   Clear
9:53 PM 62.1 °F 55.9 °F 80% 30.14 in 10.0 mi ESE 5.8 mph - N/A   Clear
10:53 PM 61.0 °F 55.9 °F 83% 30.15 in 10.0 mi SE 3.5 mph - N/A   Clear
11:53 PM 60.1 °F 55.0 °F 83% 30.15 in 10.0 mi ESE 4.6 mph - N/A   Clear